Terug naar catalogus

CZ-2D DEB

ActiefSSO
NORAD 44609·DEBRIS·🇨🇳 China

Gelanceerd Oct 9, 2017 vanaf Jiuquan Satellite Launch Center

Loading…

Volgende Passages (komende 24 uur)

TLE

VersSource: Space-Track

Epoch: Sep 13, 2026, 12:23 UTC

1 44609U 17060B   26256.51623632  .00003989  00000-0  31233-3 0  9990
2 44609  97.5361 272.2493 0026049  16.4629 343.7436 15.01310106478438

Volg CZ-2D DEB in realtime met AllMySat

Download on the App Store